(32809) Sommerfeld = 1990 TJ10 = 2000 QA56

Discovered at Tautenburg on 1990-10-10 by F. Borngen and L. D. Schmadel.
(32809) Sommerfeld = 1990 TJ10

Arnold Sommerfeld (1868-1951), a longtime professor in Munich, taught many renowned physicists. He extended the atomic model of Bohr, wave mechanics and the theory of electrons in metals. His textbook Atomic Structure and Spectral Lines (1919-1929) was a standard for decades. [Ref: Minor Planet Circ. 45345]

Orbit

Orbit type: Main Belt

Note: WebGL enabled browser required.

epoch2024-03-31.0
epoch JD2460400.5
perihelion date2021-03-12.81603
perihelion JD2459286.31604
argument of perihelion (°)331.74859
ascending node (°)357.22110
inclination (°)8.42338
eccentricity0.0910048
perihelion distance (AU)2.7196558
Tisserand w.r.t. Jupiter3.2
ΔV w.r.t. Earth (km/sec)10.6
semimajor axis (AU)2.9919362
mean anomaly (°)212.19370
mean daily motion (°/day)0.19044760
aphelion distance (AU)3.264
period (years)5.18
P-vector [x]0.85714229
P-vector [y]-0.44069373
P-vector [z]-0.26663858
Q-vector [x]0.51503074
Q-vector [y]0.72614953
Q-vector [z]0.45546700
absolute magnitude14.43
phase slope0.15
uncertainty0
referenceE2024-GI3
observations used1297
oppositions23
arc length (days)12262
first opposition used1990
last opposition used2024
residual rms (arc-secs)0.75
perturbers coarse indicatorM-v
perturbers precise indicator003Ek
first observation date used1990-09-16.0
last observation date used2024-04-12.0
computer nameMPCLINUX
JD of orbit computation2456789.220182
perihelion JD uncertainty (days)1.6816E-04
argument of perihelion uncertainty (°)4.3097E-05
ascending node uncertainty (°)3.3051E-05
inclination uncertainty (°)5.9299E-06
eccentricity uncertainty 5.5577E-08
perihelion distance uncertainty (AU)1.7135E-07
Minimum Orbit Intersection Distances (in AU)
for orbit epoch: 2460400.5, reference: E2024-GI3
Mercury2.3031
Venus1.99175
Earth1.71245
Mars1.33922
Jupiter2.08943
Saturn5.91523
Uranus15.1849
Neptune26.9216

Observations

1247 total observations over interval: 1990 09 16.38611 – 2024 03 19.471874
These data are available for download (format description).

Date (UT) J2000 RA J2000 Dec Magn Location Ref
1990 09 16.38611 01 44 58.02 +15 16 23.7   261 – Palomar Mountain-DSS MPS 27292
1990 09 16.44861 01 44 56.06 +15 16 26.3   261 – Palomar Mountain-DSS MPS 27292
1990 10 10.84493 01 26 49.89 +15 00 13.5 19.2   033 – Karl Schwarzschild Observatory, Tautenburg MPC 17288
1990 10 11.86993 01 25 55.58 +14 58 05.9   033 – Karl Schwarzschild Observatory, Tautenburg MPC 17288
1990 10 11.91646 01 25 53.05 +14 58 00.1   033 – Karl Schwarzschild Observatory, Tautenburg MPC 17288
1990 10 12.89285 01 25 01.16 +14 55 53.3   033 – Karl Schwarzschild Observatory, Tautenburg MPC 17496
1990 10 13.89493 01 24 07.64 +14 53 37.2   033 – Karl Schwarzschild Observatory, Tautenburg MPC 17496
1990 10 14.89493 01 23 14.19 +14 51 18.6   033 – Karl Schwarzschild Observatory, Tautenburg MPC 17496
1995 07 24.43930 00 42 10.99 +03 06 47.9 19.6 V 691 – Steward Observatory, Kitt Peak-Spacewatch MPS 32092
1995 07 24.45020 00 42 11.27 +03 06 50.8 19.3 V 691 – Steward Observatory, Kitt Peak-Spacewatch MPS 32092
1995 07 24.46114 00 42 11.39 +03 06 53.1 20.0 V 691 – Steward Observatory, Kitt Peak-Spacewatch MPS 32092
1998 03 29.17897 10 56 14.49 +08 33 56.4 19.3   704 – Lincoln Laboratory ETS, New Mexico MPS 24734
1998 03 29.19906 10 56 13.62 +08 33 57.7 19.9   704 – Lincoln Laboratory ETS, New Mexico MPS 24734
1998 03 29.21924 10 56 12.86 +08 34 00.0 20.0   704 – Lincoln Laboratory ETS, New Mexico MPS 24734
1998 03 29.25954 10 56 11.15 +08 34 02.5 19.6   704 – Lincoln Laboratory ETS, New Mexico MPS 24734
2000 08 25.27743 23 24 22.53 -07 33 10.9 17.6   704 – Lincoln Laboratory ETS, New Mexico MPS 18145
2000 08 25.29093 23 24 21.89 -07 33 12.0 17.6   704 – Lincoln Laboratory ETS, New Mexico MPS 18145
2000 08 25.31935 23 24 20.59 -07 33 16.1 17.4   704 – Lincoln Laboratory ETS, New Mexico MPS 18145
2000 08 27.28801 23 22 48.53 -07 37 18.2 17.5 R 807 – Cerro Tololo Observatory, La Serena MPS 20622
2000 08 27.35993 23 22 45.01 -07 37 27.2   807 – Cerro Tololo Observatory, La Serena MPS 20622
2000 08 29.34051 23 21 09.91 -07 41 47.4 18.4   704 – Lincoln Laboratory ETS, New Mexico MPS 18145
2000 08 29.35392 23 21 09.29 -07 41 49.1 19.2   704 – Lincoln Laboratory ETS, New Mexico MPS 18145
2000 08 29.38082 23 21 07.91 -07 41 53.0 18.9   704 – Lincoln Laboratory ETS, New Mexico MPS 18145
2000 09 02.31811 23 17 51.88 -07 50 28.7 17.8 R 699 – Lowell Observatory-LONEOS MPS 18145
2000 09 02.33731 23 17 50.89 -07 50 31.4   699 – Lowell Observatory-LONEOS MPS 18145
2000 09 02.35651 23 17 49.90 -07 50 33.4   699 – Lowell Observatory-LONEOS MPS 18145
2000 09 02.37577 23 17 48.87 -07 50 35.9   699 – Lowell Observatory-LONEOS MPS 18145
2000 09 05.26862 23 15 21.22 -07 56 54.3 18.1   704 – Lincoln Laboratory ETS, New Mexico MPS 18145
2000 09 05.28187 23 15 20.45 -07 56 56.3 18.2   704 – Lincoln Laboratory ETS, New Mexico MPS 18145
2000 09 05.29522 23 15 19.82 -07 56 56.5 18.2   704 – Lincoln Laboratory ETS, New Mexico MPS 18145
2000 09 05.30860 23 15 19.06 -07 56 58.3 18.0   704 – Lincoln Laboratory ETS, New Mexico MPS 18145
2000 09 05.32178 23 15 18.35 -07 57 00.2 18.4   704 – Lincoln Laboratory ETS, New Mexico MPS 18145
2000 09 23.20326 23 00 21.96 -08 28 22.9 17.8 R 699 – Lowell Observatory-LONEOS MPS 29841
2000 09 23.21876 23 00 21.22 -08 28 24.7   699 – Lowell Observatory-LONEOS MPS 29841
2000 09 23.23418 23 00 20.53 -08 28 25.5   699 – Lowell Observatory-LONEOS MPS 29841
2000 09 23.24964 23 00 19.79 -08 28 26.4   699 – Lowell Observatory-LONEOS MPS 29841
2000 09 24.17915 22 59 37.59 -08 29 27.2 18.1 R 699 – Lowell Observatory-LONEOS MPS 29841
2000 09 24.20229 22 59 36.46 -08 29 28.4   699 – Lowell Observatory-LONEOS MPS 29841
2000 09 24.22553 22 59 35.51 -08 29 31.0   699 – Lowell Observatory-LONEOS MPS 29841
2000 09 24.24872 22 59 34.43 -08 29 32.1   699 – Lowell Observatory-LONEOS MPS 29841
2000 09 24.25891 22 59 33.91 -08 29 32.6 18.5   704 – Lincoln Laboratory ETS, New Mexico MPS 19287
2000 09 24.27379 22 59 33.23 -08 29 32.5 18.3   704 – Lincoln Laboratory ETS, New Mexico MPS 19287
2000 09 24.28869 22 59 32.53 -08 29 34.6 18.8   704 – Lincoln Laboratory ETS, New Mexico MPS 19287
2000 09 24.30360 22 59 31.82 -08 29 36.0 19.4   704 – Lincoln Laboratory ETS, New Mexico MPS 19287
2000 09 24.31870 22 59 31.10 -08 29 35.7 19.5   704 – Lincoln Laboratory ETS, New Mexico MPS 19287
2000 10 02.19132 22 54 07.87 -08 34 44.6 18.9   704 – Lincoln Laboratory ETS, New Mexico MPS 19287
2000 10 02.26511 22 54 05.03 -08 34 45.8 18.8   704 – Lincoln Laboratory ETS, New Mexico MPS 19287
2000 10 02.28317 22 54 04.35 -08 34 46.0 18.8   704 – Lincoln Laboratory ETS, New Mexico MPS 19287
2000 10 07.18334 22 51 19.46 -08 34 30.3 18.6 V 691 – Steward Observatory, Kitt Peak-Spacewatch MPS 19287
2000 10 07.18721 22 51 19.33 -08 34 30.2 18.6 V 691 – Steward Observatory, Kitt Peak-Spacewatch MPS 19287
2000 10 07.19162 22 51 19.19 -08 34 30.3 18.7 V 691 – Steward Observatory, Kitt Peak-Spacewatch MPS 19287
2001 11 11.36062 05 40 40.98 +34 43 22.9 19.6   704 – Lincoln Laboratory ETS, New Mexico MPS 40094
2001 11 11.37526 05 40 40.42 +34 43 24.6 20.1   704 – Lincoln Laboratory ETS, New Mexico MPS 40094
2001 11 11.40452 05 40 39.33 +34 43 28.9 20.0   704 – Lincoln Laboratory ETS, New Mexico MPS 40094
2001 11 11.41916 05 40 38.79 +34 43 28.7 20.3   704 – Lincoln Laboratory ETS, New Mexico MPS 40094
2001 12 09.29539 05 16 11.55 +35 19 44.7 18.8   704 – Lincoln Laboratory ETS, New Mexico MPS 42737
2001 12 09.31045 05 16 10.57 +35 19 44.5 19.2   704 – Lincoln Laboratory ETS, New Mexico MPS 42737
2001 12 09.32559 05 16 09.59 +35 19 43.9 19.1   704 – Lincoln Laboratory ETS, New Mexico MPS 42737
2001 12 09.34106 05 16 08.56 +35 19 43.2 19.2   704 – Lincoln Laboratory ETS, New Mexico MPS 42737
2001 12 09.35674 05 16 07.53 +35 19 43.3 19.3   704 – Lincoln Laboratory ETS, New Mexico MPS 42737
2001 12 22.22223 05 03 00.66 +35 02 29.5 18.7   704 – Lincoln Laboratory ETS, New Mexico MPS 42737
2001 12 22.23728 05 02 59.78 +35 02 28.5 18.8   704 – Lincoln Laboratory ETS, New Mexico MPS 42737
2001 12 22.25232 05 02 58.90 +35 02 26.3 19.0   704 – Lincoln Laboratory ETS, New Mexico MPS 42737
2001 12 22.26736 05 02 58.01 +35 02 24.6 19.1   704 – Lincoln Laboratory ETS, New Mexico MPS 42737
2001 12 22.28242 05 02 57.14 +35 02 22.8 18.9   704 – Lincoln Laboratory ETS, New Mexico MPS 42737
2003 02 01.32514 10 46 59.79 +13 32 23.5 19.2   704 – Lincoln Laboratory ETS, New Mexico MPS 81750
2003 02 01.35550 10 46 58.48 +13 32 27.4 19.9   704 – Lincoln Laboratory ETS, New Mexico MPS 81750
2003 02 01.37082 10 46 57.94 +13 32 31.7 19.8   704 – Lincoln Laboratory ETS, New Mexico MPS 81750
2003 02 01.38598 10 46 57.19 +13 32 32.7 19.3   704 – Lincoln Laboratory ETS, New Mexico MPS 81750
2003 02 04.32964 10 44 59.14 +13 41 25.7 18.8   704 – Lincoln Laboratory ETS, New Mexico MPS 72861
2003 02 04.34513 10 44 58.51 +13 41 28.7 19.2   704 – Lincoln Laboratory ETS, New Mexico MPS 72861
2003 02 04.35940 10 44 57.87 +13 41 32.3 19.1   704 – Lincoln Laboratory ETS, New Mexico MPS 72861
2003 02 04.37346 10 44 57.24 +13 41 34.3 19.2   704 – Lincoln Laboratory ETS, New Mexico MPS 72861
2003 02 08.32080 10 42 06.39 +13 53 57.5 19.2 R 699 – Lowell Observatory-LONEOS MPS 73574
2003 02 08.34127 10 42 05.43 +13 54 00.6   699 – Lowell Observatory-LONEOS MPS 73574
2003 02 08.36171 10 42 04.40 +13 54 04.5   699 – Lowell Observatory-LONEOS MPS 73574
2003 02 08.38212 10 42 03.46 +13 54 08.1   699 – Lowell Observatory-LONEOS MPS 73574
2003 02 21.27400 10 31 35.71 +14 35 06.0 18.7   644 – Palomar Mountain/NEAT MPS 75261
2003 02 21.33615 10 31 32.45 +14 35 17.3 19.1   644 – Palomar Mountain/NEAT MPS 75261
2003 02 21.39911 10 31 29.15 +14 35 28.9 18.8   644 – Palomar Mountain/NEAT MPS 75261
2003 02 25.58652 10 27 53.59 +14 47 49.0 20.8   608 – Haleakala-AMOS MPS 75261
